Time,TemperatureF,DewpointF,PressureIn,WindDirection,WindDirectionDegrees,WindSpeedMPH,WindSpeedGustMPH,Humidity,HourlyPrecipIn,Conditions,Clouds,dailyrainin,SoftwareType,DateUTC
2013-10-13 00:03:00,47.6,40.0,30.22,West,262,0.0,0.0,74,0.00,,,0.00,weatherlink.com 1.10,2013-10-13 05:03:00,
2013-10-13 00:18:00,46.8,39.0,30.22,West,262,0.0,0.0,75,0.00,,,0.00,weatherlink.com 1.10,2013-10-13 05:18:00,
2013-10-13 00:33:00,46.4,39.0,30.23,West,262,0.0,0.0,75,0.00,,,0.00,weatherlink.com 1.10,2013-10-13 05:33:00,
2013-10-13 00:48:00,45.7,39.0,30.24,West,262,0.0,0.0,77,0.00,,,0.00,weatherlink.com 1.10,2013-10-13 05:48:00,
2013-10-13 01:03:00,45.1,38.0,30.24,West,262,0.0,0.0,77,0.00,,,0.00,weatherlink.com 1.10,2013-10-13 06:03:00,
2013-10-13 01:18:00,44.7,39.0,30.25,West,262,0.0,0.0,79,0.00,,,0.00,weatherlink.com 1.10,2013-10-13 06:18:00,
2013-10-13 01:33:00,44.5,38.0,30.25,West,262,0.0,0.0,78,0.00,,,0.00,weatherlink.com 1.10,2013-10-13 06:33:00,
2013-10-13 01:48:00,44.7,38.0,30.26,West,262,0.0,0.0,77,0.00,,,0.00,weatherlink.com 1.10,2013-10-13 06:48:00,
2013-10-13 02:03:00,44.9,37.0,30.26,West,262,0.0,0.0,75,0.00,,,0.00,weatherlink.com 1.10,2013-10-13 07:03:00,
2013-10-13 02:18:00,44.6,37.0,30.27,West,262,0.0,0.0,76,0.00,,,0.00,weatherlink.com 1.10,2013-10-13 07:18:00,
2013-10-13 02:33:00,44.3,37.0,30.28,West,262,0.0,0.0,76,0.00,,,0.00,weatherlink.com 1.10,2013-10-13 07:33:00,
2013-10-13 02:48:00,44.0,37.0,30.28,West,262,0.0,0.0,77,0.00,,,0.00,weatherlink.com 1.10,2013-10-13 07:48:00,
2013-10-13 03:03:00,43.3,37.0,30.29,West,262,0.0,0.0,78,0.00,,,0.00,weatherlink.com 1.10,2013-10-13 08:03:00,
2013-10-13 03:18:00,42.9,37.0,30.29,West,262,0.0,0.0,81,0.00,,,0.00,weatherlink.com 1.10,2013-10-13 08:18:00,
2013-10-13 03:33:00,42.5,38.0,30.29,West,262,0.0,0.0,84,0.00,,,0.00,weatherlink.com 1.10,2013-10-13 08:33:00,
2013-10-13 03:48:00,42.2,38.0,30.30,West,262,0.0,0.0,84,0.00,,,0.00,weatherlink.com 1.10,2013-10-13 08:48:00,
2013-10-13 04:03:00,41.7,37.0,30.31,West,262,0.0,0.0,82,0.00,,,0.00,weatherlink.com 1.10,2013-10-13 09:03:00,
2013-10-13 04:19:00,41.4,36.0,30.32,West,262,0.0,0.0,81,0.00,,,0.00,weatherlink.com 1.10,2013-10-13 09:19:00,
2013-10-13 04:34:00,41.3,36.0,30.32,West,262,0.0,0.0,81,0.00,,,0.00,weatherlink.com 1.10,2013-10-13 09:34:00,
2013-10-13 04:49:00,41.1,36.0,30.33,West,262,0.0,0.0,83,0.00,,,0.00,weatherlink.com 1.10,2013-10-13 09:49:00,
2013-10-13 05:04:00,41.7,36.0,30.34,West,262,0.0,0.0,81,0.00,,,0.00,weatherlink.com 1.10,2013-10-13 10:04:00,
2013-10-13 05:19:00,41.5,36.0,30.34,West,262,0.0,0.0,81,0.00,,,0.00,weatherlink.com 1.10,2013-10-13 10:19:00,
2013-10-13 05:34:00,41.1,36.0,30.35,West,262,0.0,0.0,81,0.00,,,0.00,weatherlink.com 1.10,2013-10-13 10:34:00,
2013-10-13 05:49:00,40.8,36.0,30.35,West,262,0.0,0.0,82,0.00,,,0.00,weatherlink.com 1.10,2013-10-13 10:49:00,
2013-10-13 06:04:00,40.3,36.0,30.36,West,262,0.0,0.0,83,0.00,,,0.00,weatherlink.com 1.10,2013-10-13 11:04:00,
2013-10-13 06:19:00,39.8,36.0,30.36,West,262,0.0,0.0,85,0.00,,,0.00,weatherlink.com 1.10,2013-10-13 11:19:00,
2013-10-13 06:34:00,39.6,36.0,30.37,West,262,0.0,0.0,86,0.00,,,0.00,weatherlink.com 1.10,2013-10-13 11:34:00,
2013-10-13 06:49:00,39.8,36.0,30.37,West,262,0.0,0.0,85,0.00,,,0.00,weatherlink.com 1.10,2013-10-13 11:49:00,
2013-10-13 07:04:00,40.0,36.0,30.38,West,262,0.0,0.0,85,0.00,,,0.00,weatherlink.com 1.10,2013-10-13 12:04:00,
2013-10-13 07:19:00,40.2,37.0,30.38,West,262,0.0,0.0,87,0.00,,,0.00,weatherlink.com 1.10,2013-10-13 12:19:00,
2013-10-13 07:34:00,40.4,37.0,30.39,West,262,0.0,0.0,87,0.00,,,0.00,weatherlink.com 1.10,2013-10-13 12:34:00,
2013-10-13 07:49:00,40.4,37.0,30.40,West,262,0.0,0.0,88,0.00,,,0.00,weatherlink.com 1.10,2013-10-13 12:49:00,
2013-10-13 08:04:00,40.7,37.0,30.41,West,262,0.0,0.0,87,0.00,,,0.00,weatherlink.com 1.10,2013-10-13 13:04:00,
2013-10-13 08:19:00,41.2,38.0,30.41,West,262,0.0,0.0,87,0.00,,,0.00,weatherlink.com 1.10,2013-10-13 13:19:00,
2013-10-13 08:34:00,41.8,38.0,30.42,West,262,0.0,0.0,86,0.00,,,0.00,weatherlink.com 1.10,2013-10-13 13:34:00,
2013-10-13 08:49:00,43.5,40.0,30.42,West,262,0.0,0.0,86,0.00,,,0.00,weatherlink.com 1.10,2013-10-13 13:49:00,
2013-10-13 09:04:00,45.6,41.0,30.43,West,262,0.0,0.0,84,0.00,,,0.00,weatherlink.com 1.10,2013-10-13 14:04:00,
2013-10-13 09:19:00,48.6,42.0,30.44,West,262,0.0,0.0,79,0.00,,,0.00,weatherlink.com 1.10,2013-10-13 14:19:00,
2013-10-13 09:34:00,50.5,43.0,30.44,WNW,296,0.0,2.0,76,0.00,,,0.00,weatherlink.com 1.10,2013-10-13 14:34:00,
2013-10-13 09:49:00,52.1,43.0,30.44,West,279,0.0,0.0,71,0.00,,,0.00,weatherlink.com 1.10,2013-10-13 14:49:00,
2013-10-13 10:04:00,53.8,43.0,30.45,West,275,0.0,1.0,67,0.00,,,0.00,weatherlink.com 1.10,2013-10-13 15:04:00,
2013-10-13 10:19:00,54.8,43.0,30.45,SSW,203,2.0,2.0,64,0.00,,,0.00,weatherlink.com 1.10,2013-10-13 15:19:00,
2013-10-13 10:34:00,56.2,43.0,30.45,West,273,1.0,2.0,61,0.00,,,0.00,weatherlink.com 1.10,2013-10-13 15:34:00,
2013-10-13 10:50:00,56.9,41.0,30.45,NNE,16,0.0,2.0,56,0.00,,,0.00,weatherlink.com 1.10,2013-10-13 15:50:00,
2013-10-13 11:05:00,57.8,40.0,30.45,North,5,0.0,3.0,51,0.00,,,0.00,weatherlink.com 1.10,2013-10-13 16:05:00,
2013-10-13 11:20:00,58.3,40.0,30.45,ENE,60,1.0,5.0,51,0.00,,,0.00,weatherlink.com 1.10,2013-10-13 16:20:00,
2013-10-13 11:35:00,58.5,39.0,30.45,NW,313,1.0,5.0,49,0.00,,,0.00,weatherlink.com 1.10,2013-10-13 16:35:00,
2013-10-13 11:50:00,58.6,38.0,30.45,NNE,26,0.0,4.0,47,0.00,,,0.00,weatherlink.com 1.10,2013-10-13 16:50:00,
2013-10-13 12:05:00,59.0,38.0,30.45,West,273,2.0,7.0,46,0.00,,,0.00,weatherlink.com 1.10,2013-10-13 17:05:00,
2013-10-13 12:20:00,59.0,37.0,30.45,NNW,329,0.0,5.0,44,0.00,,,0.00,weatherlink.com 1.10,2013-10-13 17:20:00,
2013-10-13 12:35:00,59.2,36.0,30.45,ENE,63,0.0,6.0,43,0.00,,,0.00,weatherlink.com 1.10,2013-10-13 17:35:00,
2013-10-13 12:50:00,59.5,37.0,30.44,North,9,0.0,3.0,44,0.00,,,0.00,weatherlink.com 1.10,2013-10-13 17:50:00,
2013-10-13 13:05:00,59.8,36.0,30.44,North,355,0.0,4.0,42,0.00,,,0.00,weatherlink.com 1.10,2013-10-13 18:05:00,
2013-10-13 13:20:00,60.2,37.0,30.43,North,349,1.0,9.0,42,0.00,,,0.00,weatherlink.com 1.10,2013-10-13 18:20:00,
2013-10-13 13:35:00,60.6,37.0,30.43,NNW,335,0.0,7.0,42,0.00,,,0.00,weatherlink.com 1.10,2013-10-13 18:35:00,
2013-10-13 13:50:00,60.8,37.0,30.42,WSW,237,0.0,9.0,41,0.00,,,0.00,weatherlink.com 1.10,2013-10-13 18:50:00,
2013-10-13 14:05:00,61.6,37.0,30.42,NNW,332,0.0,3.0,41,0.00,,,0.00,weatherlink.com 1.10,2013-10-13 19:05:00,
2013-10-13 14:20:00,62.0,35.0,30.41,North,5,0.0,3.0,37,0.00,,,0.00,weatherlink.com 1.10,2013-10-13 19:20:00,
2013-10-13 14:35:00,61.9,34.0,30.41,NNW,340,2.0,3.0,36,0.00,,,0.00,weatherlink.com 1.10,2013-10-13 19:35:00,
2013-10-13 14:50:00,61.6,36.0,30.41,North,360,0.0,7.0,38,0.00,,,0.00,weatherlink.com 1.10,2013-10-13 19:50:00,
2013-10-13 15:05:00,61.9,34.0,30.41,North,5,0.0,5.0,36,0.00,,,0.00,weatherlink.com 1.10,2013-10-13 20:05:00,
2013-10-13 15:20:00,61.8,34.0,30.41,North,10,1.0,6.0,35,0.00,,,0.00,weatherlink.com 1.10,2013-10-13 20:20:00,
2013-10-13 15:35:00,61.7,33.0,30.41,North,5,0.0,6.0,34,0.00,,,0.00,weatherlink.com 1.10,2013-10-13 20:35:00,
2013-10-13 15:50:00,62.0,35.0,30.41,ENE,59,0.0,4.0,36,0.00,,,0.00,weatherlink.com 1.10,2013-10-13 20:50:00,
2013-10-13 16:05:00,62.3,33.0,30.41,NNE,26,0.0,2.0,34,0.00,,,0.00,weatherlink.com 1.10,2013-10-13 21:05:00,
2013-10-13 16:20:00,61.6,35.0,30.40,ENE,67,0.0,3.0,37,0.00,,,0.00,weatherlink.com 1.10,2013-10-13 21:20:00,
2013-10-13 16:35:00,60.9,34.0,30.40,NNE,33,0.0,4.0,36,0.00,,,0.00,weatherlink.com 1.10,2013-10-13 21:35:00,
2013-10-13 16:50:00,60.4,34.0,30.40,North,351,0.0,6.0,37,0.00,,,0.00,weatherlink.com 1.10,2013-10-13 21:50:00,
2013-10-13 17:05:00,59.8,33.0,30.41,NNE,17,0.0,3.0,36,0.00,,,0.00,weatherlink.com 1.10,2013-10-13 22:05:00,
2013-10-13 17:20:00,59.3,33.0,30.41,NE,36,1.0,1.0,38,0.00,,,0.00,weatherlink.com 1.10,2013-10-13 22:20:00,
2013-10-13 17:35:00,58.6,34.0,30.41,NNE,17,0.0,1.0,40,0.00,,,0.00,weatherlink.com 1.10,2013-10-13 22:35:00,
2013-10-13 17:50:00,57.6,34.0,30.41,NNE,17,0.0,0.0,41,0.00,,,0.00,weatherlink.com 1.10,2013-10-13 22:50:00,
2013-10-13 18:05:00,56.5,34.0,30.41,NNE,17,0.0,0.0,43,0.00,,,0.00,weatherlink.com 1.10,2013-10-13 23:05:00,
2013-10-13 18:20:00,55.5,34.0,30.42,NNE,17,0.0,0.0,45,0.00,,,0.00,weatherlink.com 1.10,2013-10-13 23:20:00,
2013-10-13 18:35:00,54.3,34.0,30.42,NNE,17,0.0,0.0,46,0.00,,,0.00,weatherlink.com 1.10,2013-10-13 23:35:00,
2013-10-13 18:50:00,53.5,35.0,30.42,NNE,17,0.0,0.0,49,0.00,,,0.00,weatherlink.com 1.10,2013-10-13 23:50:00,
2013-10-13 19:05:00,52.7,34.0,30.42,NNE,17,0.0,0.0,50,0.00,,,0.00,weatherlink.com 1.10,2013-10-14 00:05:00,
2013-10-13 19:20:00,52.2,34.0,30.42,NNE,17,0.0,0.0,51,0.00,,,0.00,weatherlink.com 1.10,2013-10-14 00:20:00,
2013-10-13 19:35:00,51.3,35.0,30.43,NNE,17,0.0,0.0,54,0.00,,,0.00,weatherlink.com 1.10,2013-10-14 00:35:00,
2013-10-13 19:50:00,50.8,34.0,30.43,NNE,17,0.0,0.0,54,0.00,,,0.00,weatherlink.com 1.10,2013-10-14 00:50:00,
2013-10-13 20:05:00,50.6,35.0,30.43,NNE,17,0.0,0.0,55,0.00,,,0.00,weatherlink.com 1.10,2013-10-14 01:05:00,
2013-10-13 20:20:00,50.3,34.0,30.44,NNE,17,0.0,0.0,55,0.00,,,0.00,weatherlink.com 1.10,2013-10-14 01:20:00,
2013-10-13 20:35:00,50.0,34.0,30.43,NNE,17,0.0,0.0,55,0.00,,,0.00,weatherlink.com 1.10,2013-10-14 01:35:00,
2013-10-13 20:50:00,49.6,34.0,30.43,NNE,17,0.0,0.0,56,0.00,,,0.00,weatherlink.com 1.10,2013-10-14 01:50:00,
2013-10-13 21:05:00,49.0,35.0,30.43,NNE,17,0.0,0.0,59,0.00,,,0.00,weatherlink.com 1.10,2013-10-14 02:05:00,
2013-10-13 21:20:00,48.2,39.0,30.44,NNE,17,0.0,0.0,71,0.00,,,0.00,weatherlink.com 1.10,2013-10-14 02:20:00,
2013-10-13 21:35:00,47.0,36.0,30.44,NNE,17,0.0,0.0,67,0.00,,,0.00,weatherlink.com 1.10,2013-10-14 02:35:00,
2013-10-13 21:50:00,46.4,37.0,30.45,NNE,17,0.0,0.0,69,0.00,,,0.00,weatherlink.com 1.10,2013-10-14 02:50:00,
2013-10-13 22:05:00,46.2,35.0,30.45,NNE,17,0.0,0.0,65,0.00,,,0.00,weatherlink.com 1.10,2013-10-14 03:05:00,
2013-10-13 22:20:00,46.7,35.0,30.45,NNE,17,0.0,0.0,64,0.00,,,0.00,weatherlink.com 1.10,2013-10-14 03:20:00,
2013-10-13 22:35:00,46.4,36.0,30.46,NNE,17,0.0,0.0,66,0.00,,,0.00,weatherlink.com 1.10,2013-10-14 03:35:00,
2013-10-13 22:50:00,45.6,37.0,30.46,NNE,17,0.0,0.0,71,0.00,,,0.00,weatherlink.com 1.10,2013-10-14 03:50:00,
2013-10-13 23:05:00,44.9,37.0,30.46,NNE,17,0.0,0.0,74,0.00,,,0.00,weatherlink.com 1.10,2013-10-14 04:05:00,
2013-10-13 23:20:00,44.1,39.0,30.46,NNE,17,0.0,0.0,81,0.00,,,0.00,weatherlink.com 1.10,2013-10-14 04:20:00,
2013-10-13 23:35:00,43.4,36.0,30.45,NNE,17,0.0,0.0,75,0.00,,,0.00,weatherlink.com 1.10,2013-10-14 04:35:00,
2013-10-13 23:50:00,43.2,38.0,30.45,NNE,17,0.0,0.0,82,0.00,,,0.00,weatherlink.com 1.10,2013-10-14 04:50:00,